Regional Weather Roundup
Issued by NWS

Home | Current Version | Previous Version | Graphics & Text | Print | Product List | Glossary On
Versions: 1 2 3 4 5 6 7 8 9 10 11 12 13 14 15 16 17 18 19 20 21 22 23 24 25 26 27 28 29 30 31 32 33 34 35 36 37 38 39 40 41 42 43 44 45 46 47 48 49 50
000
ASUS43 KBIS 291610
RWRND

NORTH DAKOTA REGIONAL WEATHER ROUNDUP
NATIONAL WEATHER SERVICE BISMARCK ND
1100 AM CDT WED MAR 29 2017

NOTE: "FAIR" INDICATES FEW OR NO CLOUDS BELOW 12,000 FEET WITH NO
SIGNIFICANT WEATHER AND/OR OBSTRUCTIONS TO VISIBILITY.


NDZ001>003-009>011-017-291700-
NORTHWEST NORTH DAKOTA

CITY           SKY/WX    TMP DP  RH WIND       PRES   REMARKS
WILLISTON      FAIR      45  41  86 SW9       30.02F
MINOT          CLOUDY    50  43  77 S9        30.05S
MINOT AFB      CLOUDY    48  43  85 S12       30.03F
$$

NDZ018>021-031>035-040>046-291700-
SOUTHWEST NORTH DAKOTA

CITY           SKY/WX    TMP DP  RH WIND       PRES   REMARKS
BISMARCK       FAIR      53  42  66 SW3       30.12S
DICKINSON      CLOUDY    45  42  89 SW14      30.05S
GARRISON         N/A     49  41  74 SW13      30.06F
HETTINGER ARPT CLOUDY    46  40  79 SW14      30.10S
$$

NDZ004>008-012>016-024-026-027-054-291700-
NORTHEAST NORTH DAKOTA

CITY           SKY/WX    TMP DP  RH WIND       PRES   REMARKS
GRAND FORKS    MOSUNNY   45  37  73 SE12      30.15F
GRND FRKS AFB  SUNNY     48  38  69 S6        30.14F
DEVILS LAKE    FAIR      51  39  63 S12       30.11F
$$

NDZ022-023-025-028>030-036>039-047>053-291700-
SOUTHEAST NORTH DAKOTA

CITY           SKY/WX    TMP DP  RH WIND       PRES   REMARKS
FARGO          PTSUNNY   49  37  63 SE9       30.17S
JAMESTOWN      FAIR      49  39  68 S5        30.13F
$$





USA.gov is the U.S. government's official web portal to all federal, state and local government web resources and services.